Login

Heerenveen

Pos Pair Lane Name Born Nation Time
1 11 I Dmitriy Morozov 1996 Kazakhstan 1:45.95
2 12 I Alessio Trentini 1994 Italy 1:46.09
3 12 O Moritz Klein 2000 Germany 1:46.25
4 13 I Seitaro Ichinohe 1996 Japan 1:46.36
5 7 I Haotian Wang 1998 China 1:46.88
6 6 O Livio Wenger 1993 Switzerland 1:47.06
7 13 O Mathias Vosté 1994 Belgium 1:47.23
8 6 I Ethan Cepuran 2000 USA 1:47.65
9 14 O Stefan Emele 1996 Germany 1:48.08
10 7 O Hanyang Shen 1998 China 1:48.19
11 2 I Hayden Mayeur 1997 Canada 1:48.26
12 10 O Gabriel Odor 2000 Austria 1:48.39
13 9 I Francesco Betti 2000 Italy 1:48.52
14 11 O Demyan Gavrilov 1997 Kazakhstan 1:48.55
15 10 I Casey Dawson 2000 USA 1:48.65
16 14 I Emery Lehman 1996 USA 1:48.78
17 8 O Samuli Suomalainen 1998 Finland 1:48.95
18 5 O Cheon-Ho Um 1992 South Korea 1:49.17
19 2 O Marten Liiv 1996 Estonia 1:49.77
20 5 I Mathieu Belloir 2000 France 1:50.04
21 3 I Ziwen Lian 1998 China 1:50.36
22 4 I Wei-Lin Tai 1997 Taiwan 1:50.44
23 9 O Marcin Bachanek 1996 Poland 1:50.64
24 1 I Szymon Palka 1997 Poland 1:51.11
25 4 O Michael Roth 1999 Germany 1:51.12
26 3 O Botond Bejczi 1999 Hungary 1:53.35
27 8 I Hojun Yang 2005 South Korea 2:09.78

Info

What World Cup B-group
Discipline 1.500
Host Heerenveen
Nation Netherlands
Date Sunday 20.Nov 2022
Calendar 2022/2023
Air Temp 15.8 C
Ice Temp -10.7 C
Humidity 35.9 %